Weather History for KFSM - December, 2014

Change the Weather History Date:

Monday, December 1, 2014

  Actual Average Record
Temperature  
Mean Temperature 40 °F 45 °F  
Max Temperature 47 °F 56 °F 78 °F (1883)
Min Temperature 33 °F 35 °F 18 °F (1975)
Degree Days  
Heating Degree Days 25 20  
Month to date heating degree days 25 20  
Since 1 July heating degree days 644 585  
Moisture  
Dew Point 30 °F    
Average Humidity 81    
Maximum Humidity 96    
Minimum Humidity 65    
Precipitation  
Precipitation T in 0.13 in 1.53 in (1921)
Month to date precipitation T 0.13  
Year to date precipitation 39.83 42.30  
Sea Level Pressure  
Sea Level Pressure 30.42 in    
Wind  
Wind Speed 8 mph (NNW)    
Max Wind Speed 17 mph    
Max Gust Speed 21 mph    
Visibility 7 miles    
Events      
T = Trace of Precipitation, MM = Missing Value Source: NWS Daily Summary

Daily Weather History Graph

Daily Weather History Graph

Search for Another Location

Airport or City:

Trip Planner

Search our weather history database for the weather conditions in past years. The results will help you decide how hot, cold, wet, or windy it might be!

Date:

Astronomy

Dec. 01, 2014 Rise Set
Actual Time 7:07 AM CST 5:04 PM CST
Civil Twilight 6:40 AM CST 5:32 PM CST
Nautical Twilight 6:08 AM CST 6:04 PM CST
Astronomical Twilight 5:37 AM CST 6:34 PM CST
Moon 2:01 PM CST (12/1) 1:56 AM CST (12/1)
Length of Visible Light 10h 52m
Length of Day
9h 57m
Waxing Gibbous, 75% of the Moon is Illuminated
Dec 1
Waxing Gibbous
Dec 6
Full
Dec 14
Last Quarter
Dec 21
New
Dec 28
First Quarter

Hourly Weather History & Observations

Time (CST) Temp. Windchill Dew Point Humidity Pressure Visibility Wind Dir Wind Speed Gust Speed Precip Events Conditions
12:53 AM 46.9 °F - 36.0 °F 66% 30.20 in 6.0 mi West 12.7 mph - N/A   Haze
1:41 AM 46.0 °F 39.6 °F 35.1 °F 66% 30.22 in 6.0 mi West 15.0 mph - N/A   Haze
1:53 AM 46.0 °F 40.2 °F 35.1 °F 66% 30.23 in 7.0 mi WNW 12.7 mph - N/A   Overcast
2:53 AM 45.0 °F 38.5 °F 34.0 °F 65% 30.25 in 5.0 mi West 13.8 mph - N/A   Haze
3:53 AM 45.0 °F 40.1 °F 34.0 °F 65% 30.27 in 8.0 mi WNW 9.2 mph - N/A   Overcast
4:53 AM 43.0 °F 36.0 °F 32.0 °F 65% 30.31 in 9.0 mi NW 13.8 mph - N/A   Overcast
5:53 AM 39.9 °F 32.9 °F 30.0 °F 68% 30.35 in 10.0 mi NW 11.5 mph 20.7 mph 0.00 in   Overcast
6:53 AM 37.9 °F 30.9 °F 28.9 °F 70% 30.38 in 10.0 mi NW 10.4 mph - N/A   Overcast
7:53 AM 35.1 °F 26.9 °F 28.9 °F 78% 30.42 in 5.0 mi NW 11.5 mph - N/A   Haze
8:53 AM 35.1 °F 27.4 °F 28.9 °F 78% 30.45 in 8.0 mi NW 10.4 mph - N/A   Overcast
9:42 AM 35.1 °F 29.3 °F 28.9 °F 78% 30.47 in 8.0 mi NW 6.9 mph - N/A   Overcast
9:53 AM 35.1 °F 29.3 °F 28.9 °F 78% 30.48 in 9.0 mi NNW 6.9 mph - N/A   Overcast
10:53 AM 35.1 °F 30.1 °F 28.9 °F 78% 30.48 in 8.0 mi NW 5.8 mph - N/A   Overcast
11:53 AM 35.1 °F 29.3 °F 28.0 °F 76% 30.46 in 10.0 mi North 6.9 mph - N/A   Overcast
12:53 PM 36.0 °F 33.3 °F 28.0 °F 73% 30.45 in 10.0 mi NW 3.5 mph - N/A   Overcast
1:53 PM 36.0 °F 31.1 °F 28.0 °F 73% 30.44 in 9.0 mi WNW 5.8 mph - N/A   Overcast
2:01 PM 36.0 °F 29.6 °F 28.0 °F 73% 30.44 in 8.0 mi WNW 8.1 mph - N/A   Overcast
2:53 PM 35.1 °F 29.3 °F 28.9 °F 78% 30.46 in 8.0 mi NW 6.9 mph - N/A   Overcast
3:53 PM 34.0 °F 27.2 °F 28.9 °F 82% 30.47 in 10.0 mi NNW 8.1 mph - N/A   Overcast
4:22 PM 34.0 °F 27.2 °F 28.9 °F 82% 30.46 in 10.0 mi NNW 8.1 mph - N/A   Overcast
4:45 PM 34.0 °F 28.8 °F 28.9 °F 82% 30.46 in 10.0 mi North 5.8 mph - N/A   Overcast
4:53 PM 34.0 °F 26.6 °F 28.9 °F 82% 30.47 in 10.0 mi NNW 9.2 mph - N/A   Overcast
5:05 PM 33.8 °F 27.7 °F 28.4 °F 81% 30.46 in 10.0 mi NNW 6.9 mph - N/A   Overcast
5:53 PM 35.1 °F 29.3 °F 28.9 °F 78% 30.48 in 10.0 mi North 6.9 mph - N/A   Overcast
6:53 PM 34.0 °F 31.0 °F 28.9 °F 82% 30.48 in 8.0 mi North 3.5 mph - N/A   Overcast
7:37 PM 34.0 °F 31.0 °F 30.0 °F 85% 30.46 in 5.0 mi North 3.5 mph - N/A   Overcast
7:53 PM 34.0 °F 29.8 °F 30.0 °F 85% 30.47 in 6.0 mi NE 4.6 mph - N/A   Overcast
8:43 PM 33.1 °F 26.9 °F 30.9 °F 92% 30.45 in 6.0 mi ENE 6.9 mph - N/A   Overcast
8:53 PM 33.1 °F 27.7 °F 30.9 °F 92% 30.46 in 5.0 mi ENE 5.8 mph - N/A   Overcast
9:36 PM 33.1 °F 28.7 °F 30.9 °F 92% 30.44 in 4.0 mi ENE 4.6 mph - N/A   Overcast
9:53 PM 34.0 °F 29.8 °F 30.9 °F 89% 30.46 in 4.0 mi ENE 4.6 mph - N/A   Overcast
10:53 PM 34.0 °F 29.8 °F 32.0 °F 92% 30.45 in 3.0 mi East 4.6 mph - N/A   Overcast
11:12 PM 33.1 °F 27.7 °F 30.9 °F 92% 30.43 in 4.0 mi ESE 5.8 mph - N/A   Overcast
11:34 PM 33.1 °F 27.7 °F 30.9 °F 92% 30.43 in 4.0 mi ESE 5.8 mph - N/A   Overcast
11:53 PM 33.1 °F - 30.9 °F 92% 30.45 in 3.0 mi Calm Calm - N/A   Overcast